TimeCST,TemperatureF,Dew PointF,Humidity,Sea Level PressureIn,VisibilityMPH,Wind Direction,Wind SpeedMPH,Gust SpeedMPH,PrecipitationIn,Events,Conditions,WindDirDegrees,DateUTC
12:15 AM,71.2,67.1,87,29.82,5.0,SSE,5.8,-,N/A,,Mostly Cloudy,160,2013-01-12 06:15:00
12:35 AM,72.3,67.6,85,29.83,5.0,South,5.8,-,N/A,,Overcast,190,2013-01-12 06:35:00
12:55 AM,72.7,67.8,85,29.82,7.0,South,5.8,-,N/A,,Overcast,170,2013-01-12 06:55:00
1:15 AM,72.7,68.0,85,29.81,5.0,SSE,8.1,-,N/A,,Haze,160,2013-01-12 07:15:00
1:35 AM,73.2,68.0,84,29.81,7.0,South,8.1,-,N/A,,Clear,170,2013-01-12 07:35:00
1:55 AM,73.8,68.0,82,29.81,7.0,South,9.2,-,N/A,,Clear,170,2013-01-12 07:55:00
2:15 AM,73.4,68.0,83,29.83,5.0,South,10.4,-,N/A,,Haze,180,2013-01-12 08:15:00
2:35 AM,72.9,67.6,84,29.82,5.0,South,5.8,-,N/A,,Haze,170,2013-01-12 08:35:00
2:55 AM,72.1,67.5,85,29.81,5.0,SSE,5.8,-,N/A,,Scattered Clouds,150,2013-01-12 08:55:00
3:15 AM,71.6,67.3,86,29.80,5.0,SE,5.8,-,N/A,,Haze,140,2013-01-12 09:15:00
3:35 AM,71.2,67.5,88,29.79,5.0,SSE,4.6,-,N/A,,Mostly Cloudy,150,2013-01-12 09:35:00
3:55 AM,70.9,67.3,88,29.77,5.0,SE,5.8,-,N/A,,Overcast,140,2013-01-12 09:55:00
4:15 AM,72.1,68.0,87,29.76,7.0,SSE,9.2,-,N/A,,Overcast,150,2013-01-12 10:15:00
4:35 AM,72.7,68.2,86,29.76,7.0,SSE,10.4,-,N/A,,Overcast,150,2013-01-12 10:35:00
4:55 AM,72.9,68.4,86,29.76,5.0,SSE,12.7,-,N/A,,Haze,160,2013-01-12 10:55:00
5:15 AM,73.6,68.9,85,29.77,7.0,South,9.2,-,N/A,,Overcast,180,2013-01-12 11:15:00
5:35 AM,73.8,68.9,85,29.77,7.0,South,10.4,16.1,N/A,,Overcast,170,2013-01-12 11:35:00
5:55 AM,73.9,69.1,85,29.76,7.0,South,12.7,-,N/A,,Overcast,170,2013-01-12 11:55:00
6:15 AM,74.3,69.1,84,29.76,7.0,South,16.1,23.0,N/A,,Overcast,170,2013-01-12 12:15:00
6:35 AM,74.1,68.9,84,29.75,7.0,SSE,12.7,19.6,N/A,,Mostly Cloudy,160,2013-01-12 12:35:00
6:55 AM,73.8,68.9,85,29.75,5.0,South,12.7,21.9,N/A,,Haze,170,2013-01-12 12:55:00
7:15 AM,73.4,68.5,85,29.76,7.0,South,11.5,18.4,N/A,,Scattered Clouds,170,2013-01-12 13:15:00
7:35 AM,73.4,68.5,85,29.76,5.0,South,15.0,19.6,N/A,,Scattered Clouds,170,2013-01-12 13:35:00
7:55 AM,73.4,68.7,85,29.77,5.0,South,15.0,23.0,N/A,,Haze,170,2013-01-12 13:55:00
8:15 AM,73.8,68.9,85,29.77,5.0,South,12.7,19.6,N/A,,Haze,170,2013-01-12 14:15:00
8:35 AM,74.3,68.9,83,29.78,5.0,South,16.1,20.7,N/A,,Haze,170,2013-01-12 14:35:00
8:55 AM,74.7,68.9,82,29.79,5.0,South,17.3,21.9,N/A,,Haze,180,2013-01-12 14:55:00
9:15 AM,75.2,68.9,81,29.79,5.0,South,18.4,23.0,N/A,,Haze,180,2013-01-12 15:15:00
9:35 AM,76.1,69.1,79,29.80,5.0,South,15.0,20.7,N/A,,Haze,180,2013-01-12 15:35:00
9:55 AM,76.6,68.9,77,29.79,5.0,South,20.7,29.9,N/A,,Haze,170,2013-01-12 15:55:00
10:15 AM,77.5,69.1,75,29.79,5.0,South,16.1,32.2,N/A,,Haze,170,2013-01-12 16:15:00
10:35 AM,79.0,69.3,72,29.78,5.0,South,18.4,28.8,N/A,,Haze,180,2013-01-12 16:35:00
10:55 AM,80.4,68.9,68,29.77,7.0,South,23.0,31.1,N/A,,Clear,180,2013-01-12 16:55:00
11:15 AM,81.3,68.9,66,29.76,5.0,South,28.8,36.8,N/A,,Haze,170,2013-01-12 17:15:00
11:35 AM,82.4,68.7,63,29.75,5.0,South,19.6,40.3,N/A,,Haze,170,2013-01-12 17:35:00
11:55 AM,82.8,68.7,62,29.74,7.0,South,21.9,33.4,N/A,,Clear,180,2013-01-12 17:55:00
12:55 PM,84.4,68.2,58,29.70,5.0,South,28.8,34.5,N/A,,Haze,170,2013-01-12 18:55:00
1:15 PM,85.1,68.2,57,29.69,7.0,South,26.5,34.5,N/A,,Clear,180,2013-01-12 19:15:00
1:35 PM,84.6,68.2,58,29.67,5.0,South,24.2,34.5,N/A,,Haze,170,2013-01-12 19:35:00
1:55 PM,85.3,68.9,58,29.66,5.0,South,20.7,32.2,N/A,,Haze,180,2013-01-12 19:55:00
2:15 PM,84.9,69.1,59,29.66,5.0,South,21.9,28.8,N/A,,Haze,170,2013-01-12 20:15:00
2:35 PM,85.1,69.8,60,29.65,5.0,SSE,20.7,26.5,N/A,,Haze,160,2013-01-12 20:35:00
2:55 PM,84.0,70.5,64,29.65,5.0,South,19.6,26.5,N/A,,Haze,170,2013-01-12 20:55:00
3:15 PM,82.6,70.7,67,29.65,5.0,SSE,20.7,26.5,N/A,,Haze,160,2013-01-12 21:15:00
3:35 PM,83.3,70.7,66,29.66,5.0,South,18.4,26.5,N/A,,Haze,170,2013-01-12 21:35:00
3:55 PM,82.4,70.7,68,29.66,5.0,SSE,16.1,20.7,N/A,,Haze,150,2013-01-12 21:55:00
4:15 PM,81.0,70.5,70,29.66,5.0,South,17.3,23.0,N/A,,Haze,170,2013-01-12 22:15:00
4:35 PM,80.6,70.5,71,29.66,4.0,SSE,12.7,20.7,N/A,,Haze,160,2013-01-12 22:35:00
4:55 PM,80.1,70.7,73,29.66,5.0,SSE,12.7,23.0,N/A,,Haze,160,2013-01-12 22:55:00
5:15 PM,79.3,70.3,74,29.67,5.0,SSE,9.2,-,N/A,,Haze,160,2013-01-12 23:15:00
5:35 PM,79.0,70.2,74,29.67,5.0,SSE,11.5,18.4,N/A,,Haze,160,2013-01-12 23:35:00
5:55 PM,78.4,70.3,76,29.67,5.0,SSE,15.0,-,N/A,,Haze,160,2013-01-12 23:55:00
6:15 PM,77.9,70.2,77,29.67,5.0,SSE,9.2,19.6,N/A,,Haze,160,2013-01-13 00:15:00
6:35 PM,77.5,69.8,77,29.67,7.0,South,10.4,-,N/A,,Clear,170,2013-01-13 00:35:00
6:55 PM,77.5,69.8,77,29.68,7.0,South,10.4,17.3,N/A,,Clear,170,2013-01-13 00:55:00
7:15 PM,77.2,69.6,77,29.67,5.0,SSE,12.7,18.4,N/A,,Haze,160,2013-01-13 01:15:00
7:35 PM,77.0,69.8,78,29.68,5.0,SSE,15.0,-,N/A,,Haze,160,2013-01-13 01:35:00
7:55 PM,77.0,69.4,77,29.68,5.0,SSE,12.7,-,N/A,,Haze,160,2013-01-13 01:55:00
8:15 PM,77.0,69.3,77,29.68,5.0,SSE,13.8,-,N/A,,Haze,160,2013-01-13 02:15:00
8:35 PM,76.3,69.3,79,29.67,5.0,SSE,16.1,-,N/A,,Haze,160,2013-01-13 02:35:00
8:55 PM,76.1,69.8,81,29.67,5.0,SSE,11.5,18.4,N/A,,Haze,150,2013-01-13 02:55:00
9:15 PM,76.3,69.8,80,29.67,5.0,SSE,12.7,18.4,N/A,,Haze,160,2013-01-13 03:15:00
9:35 PM,76.1,70.0,81,29.68,5.0,SSE,12.7,20.7,N/A,,Haze,160,2013-01-13 03:35:00
9:55 PM,76.1,70.0,81,29.68,5.0,SSE,12.7,-,N/A,,Haze,160,2013-01-13 03:55:00
10:15 PM,76.1,70.0,81,29.68,5.0,SSE,9.2,-,N/A,,Haze,150,2013-01-13 04:15:00
10:35 PM,76.1,70.0,81,29.69,5.0,SSE,10.4,-,N/A,,Haze,160,2013-01-13 04:35:00
10:55 PM,76.1,70.0,81,29.69,5.0,SSE,11.5,-,N/A,,Haze,160,2013-01-13 04:55:00
11:15 PM,76.1,70.0,81,29.69,5.0,SSE,10.4,-,N/A,,Haze,160,2013-01-13 05:15:00
11:35 PM,76.3,69.8,80,29.69,5.0,South,10.4,-,N/A,,Haze,170,2013-01-13 05:35:00
11:55 PM,76.1,69.8,81,29.70,5.0,South,10.4,-,N/A,,Haze,180,2013-01-13 05:55:00